Temperature
14 14 14 14 14 14 14 14 14 15 14 13 12 13 13 13 13 13 13 13 13 13 13 13 14 14 14 14 14 14 14 14 14 14 14 14 14 14
14 14 14 14 14 14 13 13 13 14 14 13 12 12 13 12 13 12 12 13 13 13 13 13 13 13 13 13 13 13 14 14 14 14 14 14 14 14
14 14 14 14 13 13 13 13 13 13 13 13 12 12 12 12 12 12 12 12 12 13 13 13 13 13 13 13 13 13 13 13 13 13 13 13 13 14
13 13 13 13 13 13 13 13 13 13 12 12 12 12 11 12 12 12 11 11 11 12 12 12 12 13 13 13 13 13 13 13 13 13 13 13 13 13
13 13 13 13 13 13 13 13 12 12 12 12 12 12 11 12 11 11 11 11 11 11 11 12 12 12 12 12 12 12 12 12 12 12 12 12 13 13
13 13 13 13 13 13 13 12 12 12 12 12 11 11 11 11 11 11 11 11 11 11 11 11 11 11 11 11 11 11 11 12 12 12 12 12 12 12
13 13 13 13 13 13 12 12 12 12 12 11 11 11 11 11 11 10 10 10 10 10 10 10 10 10 11 11 11 11 11 11 11 11 11 11 11 12
12 12 12 12 12 12 12 12 12 12 11 11 11 11 10 10 10 10 10 10 10 10 10 10 10 10 10 10 10 10 10 11 11 11 11 11 11 11
12 12 12 12 12 12 12 12 12 12 11 11 11 10 10 10 10 10 10 9 9 9 9 9 9 9 9 9 10 10 10 10 10 10 10 10 10 10
12 12 11 11 12 11 11 11 11 11 11 11 10 10 10 10 10 10 9 9 9 9 9 9 9 9 9 9 9 10 10 10 10 10 10 10 10 10
12 11 11 11 11 11 11 11 11 11 11 11 10 10 10 10 10 9 9 9 9 9 9 8 8 9 9 9 9 9 9 9 9 9 9 9 9 9
11 11 11 11 11 11 10 10 10 10 10 10 10 10 9 9 9 9 9 8 8 8 8 8 8 8 8 8 8 8 8 8 8 8 9 9 9 9
11 11 11 11 11 11 11 10 10 10 9 9 9 9 9 9 9 9 8 8 8 8 8 7 7 7 7 7 7 8 8 8 8 8 8 8 8 8
11 11 11 11 11 10 10 10 10 10 9 9 8 8 8 8 8 8 8 8 8 8 7 7 7 7 7 7 7 7 7 7 7 7 7 7 7 7
11 10 10 10 10 10 10 10 9 9 9 8 8 8 8 8 8 8 8 7 7 7 7 7 7 7 6 6 6 7 7 7 7 7 6 6 6 6
10 10 10 10 10 9 9 9 9 9 8 8 8 8 8 7 7 7 7 7 7 7 7 7 7 6 6 6 6 6 6 6 6 6 6 6 5 5
10 9 9 9 9 9 8 8 8 8 8 8 7 7 7 7 7 7 7 7 6 6 6 6 6 6 6 6 5 5 5 5 5 5 5 5 5 5
9 9 9 8 8 8 8 8 8 7 7 7 7 7 6 6 6 6 6 6 6 6 6 6 6 5 5 5 5 5 5 5 5 4 4 4 4 4
9 8 8 8 8 8 7 7 7 7 7 7 6 6 6 6 6 6 5 5 5 5 5 5 5 5 4 5 5 5 4 4 4 4 4 4 4 4
8 8 8 8 7 7 7 7 7 6 6 6 6 6 5 5 5 5 5 5 5 5 5 4 4 4 4 4 4 4 4 4 3 3 3 3 3 3
8 8 7 7 7 7 7 6 6 6 6 6 5 5 5 5 5 4 4 4 4 4 4 4 4 4 3 3 3 3 3 3 3 3 2 2 2 2
7 7 7 7 7 6 6 6 6 6 5 5 5 5 5 4 4 4 4 4 4 3 3 3 3 3 3 2 2 3 3 3 3 2 2 2 2 1
7 7 6 6 6 6 6 6 5 5 5 5 4 4 4 4 4 4 3 3 3 3 3 3 3 2 2 2 2 2 2 2 2 2 2 2 2 2
Wind_Speed
3 3 2 3 2 2 1 1 2 1 1 3 3 5 5 6 7 6 8 11 11 11 11 12 12 13 12 12 11 10 10 9 9 9 8 9 9 8
3 3 3 2 2 2 1 2 2 2 1 2 2 3 5 5 6 6 6 8 11 11 11 11 12 12 11 11 11 11 11 10 10 10 9 9 10 9
3 3 3 3 2 2 1 2 2 2 1 2 2 3 4 5 5 5 6 6 8 11 11 11 11 11 11 11 11 11 11 11 10 10 10 10 11 11
3 3 3 2 2 2 2 2 2 2 1 1 2 3 4 4 4 4 5 6 6 8 9 10 10 11 11 11 11 11 11 11 10 10 10 10 10 10
2 2 2 2 2 2 2 1 1 2 1 1 2 2 2 3 3 3 4 4 5 5 5 6 8 9 9 10 10 11 11 11 10 10 10 10 11 10
2 2 3 3 3 2 2 2 1 1 1 1 1 2 2 3 3 3 3 3 4 5 6 5 4 4 6 8 9 10 10 10 10 9 10 10 10 10
2 3 4 5 7 5 3 2 1 1 1 1 1 1 2 3 3 3 3 3 3 4 5 5 4 4 4 5 7 9 9 9 9 9 9 10 10 10
2 2 3 3 5 5 5 5 4 2 2 1 1 2 3 3 3 3 3 4 3 4 5 5 4 4 4 5 7 8 8 8 9 10 10 10 10 10
2 2 2 2 1 2 3 3 3 4 4 3 3 3 3 4 4 4 4 4 4 4 5 5 4 4 4 4 5 6 7 8 9 10 10 10 11 9
1 1 1 2 2 1 1 1 2 3 3 2 3 3 4 4 4 4 5 4 4 3 4 5 5 5 4 4 2 4 6 7 8 9 10 11 11 10
1 1 0 1 4 2 1 0 1 2 4 3 4 3 4 4 4 3 4 4 4 3 3 5 5 6 5 4 2 2 4 6 7 9 10 11 13 11
2 1 2 1 2 2 2 1 1 1 1 0 1 1 1 1 3 3 4 4 4 4 3 5 5 6 5 3 3 5 6 6 7 8 9 10 12 10
2 1 1 3 1 2 3 2 2 3 2 2 2 2 2 2 2 3 4 4 5 5 5 5 6 6 6 6 6 6 6 7 8 8 8 8 9 8
2 1 2 4 1 2 2 1 2 4 2 2 2 3 3 3 3 4 5 5 5 6 7 7 6 7 8 9 7 6 7 8 8 8 9 9 9 9
1 2 2 2 3 2 2 2 3 3 2 3 3 3 3 4 4 4 5 6 6 7 7 8 7 7 8 9 9 9 9 8 7 8 9 9 9 9
2 3 4 3 3 1 2 3 3 2 3 4 4 4 4 4 4 5 5 5 6 6 6 8 8 8 8 9 9 9 9 8 8 8 9 9 10 10
2 2 3 3 3 2 2 2 3 3 4 4 4 4 5 5 5 5 5 6 7 7 7 6 7 8 8 9 9 9 9 9 9 9 9 10 9 10
4 3 3 3 3 3 3 3 4 4 4 4 5 5 5 6 6 6 6 6 7 7 8 7 7 7 8 7 7 10 9 9 9 9 10 11 11 10
5 4 3 4 4 4 4 4 4 4 4 5 5 6 6 6 6 7 7 7 7 8 8 7 7 8 10 11 7 6 9 9 10 10 10 10 12 11
4 4 4 4 4 4 4 4 4 4 4 5 5 6 6 6 7 7 7 8 8 9 9 8 8 8 10 11 11 10 8 9 10 11 11 11 11 12
4 4 4 4 4 4 4 4 4 4 5 5 5 6 6 6 7 7 8 8 9 9 9 9 8 9 10 10 11 10 9 8 11 11 12 12 12 12
4 4 4 4 4 4 4 4 4 5 5 5 5 6 6 7 8 9 8 9 8 9 10 9 9 9 9 10 12 13 12 11 10 13 15 14 11 12
4 4 4 4 4 4 4 5 6 5 5 5 6 6 7 7 7 8 9 9 9 10 10 10 9 9 10 11 12 12 15 14 11 11 11 12 16 20
Wind_Direction
63 66 59 66 47 33 28 343 319 325 50 37 22 23 18 33 13 25 37 40 33 33 33 31 31 33 33 33 35 33 30 29 28 24 20 12 4 355
53 52 52 62 60 53 27 9 352 345 28 35 23 24 20 25 27 27 41 50 44 38 36 34 32 32 33 33 32 32 31 28 26 25 20 13 6 6
74 65 62 48 48 46 35 29 25 21 52 47 36 25 19 20 23 23 27 33 47 42 36 34 32 32 33 32 30 27 25 23 23 22 24 21 19 19
68 65 65 69 50 34 27 31 36 17 25 46 29 17 17 20 19 17 28 28 31 46 37 35 32 31 31 31 30 27 23 21 21 21 20 18 17 14
71 64 57 60 57 51 27 34 42 41 28 32 25 18 10 14 7 12 29 23 15 33 38 40 35 30 29 28 29 27 22 18 17 17 16 13 11 7
67 53 43 35 25 29 32 44 47 56 49 42 27 19 15 8 356 358 1 8 4 3 7 7 24 33 36 31 27 22 17 12 11 14 12 8 4 1
95 76 60 51 34 26 17 24 35 29 41 25 11 359 359 354 354 345 343 343 354 354 343 347 353 1 13 27 20 13 8 6 6 5 3 360 356 352
121 104 96 93 88 75 54 37 15 359 354 352 335 336 343 346 347 330 334 334 334 346 329 331 336 341 352 1 14 8 1 360 0 357 352 349 347 343
135 120 98 90 141 103 108 126 70 39 354 331 327 338 337 342 329 325 325 323 326 337 324 318 326 324 331 356 12 360 354 351 351 350 346 340 337 334
150 144 135 110 67 37 87 62 40 33 19 344 346 348 346 336 320 315 311 305 304 321 321 310 319 317 317 321 356 345 341 338 336 338 336 332 326 320
163 153 183 123 77 333 278 42 41 51 78 64 24 11 10 349 323 305 307 303 311 320 332 315 316 313 303 292 293 300 313 320 319 321 324 323 318 310
166 156 80 63 92 307 263 268 294 336 337 327 225 224 271 316 292 301 307 305 310 312 335 317 315 318 306 297 307 308 304 301 297 297 305 311 313 310
195 190 131 123 135 309 297 306 339 317 297 299 310 317 314 322 325 321 323 310 305 304 318 311 307 308 302 303 306 309 310 312 310 306 299 302 304 303
213 205 128 132 160 277 293 25 326 289 280 286 294 302 308 312 314 318 314 308 302 301 304 301 296 301 301 300 302 308 308 310 312 312 311 307 296 286
198 73 106 167 197 210 180 234 253 264 275 279 287 297 304 307 307 302 297 296 296 294 290 287 286 289 290 293 298 301 305 307 310 309 309 310 308 307
185 155 171 201 227 234 220 231 254 279 282 281 288 292 295 292 291 296 296 296 293 293 293 288 284 285 285 288 290 294 297 300 304 306 305 303 302 299
186 203 219 221 231 237 248 260 268 267 269 277 281 285 287 287 289 291 292 291 291 296 301 300 291 282 279 284 287 290 294 295 298 303 303 299 297 299
200 217 229 238 245 254 260 264 265 270 277 281 280 282 285 288 290 289 287 287 291 295 299 303 301 293 280 269 260 283 290 294 298 299 297 297 297 300
214 230 237 245 252 259 265 268 272 276 278 277 279 282 286 288 289 291 292 292 292 292 294 296 296 293 294 295 287 251 286 296 296 294 294 295 294 298
230 239 244 250 257 262 267 271 275 277 276 278 280 282 284 286 289 291 292 295 295 295 294 293 290 291 291 295 297 293 267 281 291 293 296 295 292 291
234 243 249 253 258 264 269 272 275 276 279 281 282 284 285 286 287 289 291 292 289 292 295 297 300 290 287 287 285 288 292 274 273 283 293 295 297 297
239 245 251 257 259 261 266 269 273 275 278 280 285 286 287 287 288 289 291 292 291 293 296 297 299 294 289 288 290 294 297 297 283 265 262 266 283 289
243 248 252 254 257 261 263 266 272 277 280 284 288 289 290 289 289 289 289 289 290 291 293 295 296 294 292 290 291 292 295 299 299 294 284 265 260 268
Height
1574 1574 1574 1573 1573 1573 1573 1573 1574 1573 1572 1571 1569 1568 1566 1564 1562 1561 1559 1557 1555 1553 1550 1547 1544 1541 1539 1537 1536 1537 1537 1538 1538 1537 1536 1534 1533 1530
1574 1574 1574 1574 1573 1573 1572 1572 1573 1573 1572 1571 1569 1568 1566 1565 1563 1561 1559 1556 1555 1553 1551 1548 1545 1543 1541 1539 1538 1538 1537 1537 1536 1535 1534 1533 1530 1527
1575 1575 1574 1574 1574 1573 1573 1572 1572 1572 1572 1571 1569 1568 1566 1565 1563 1561 1559 1557 1555 1553 1551 1549 1546 1544 1543 1541 1539 1538 1537 1536 1535 1534 1533 1531 1529 1527
1576 1575 1575 1574 1574 1573 1573 1572 1572 1571 1571 1570 1569 1568 1566 1564 1562 1561 1559 1558 1556 1553 1551 1549 1547 1545 1543 1541 1540 1538 1537 1536 1534 1533 1531 1530 1528 1526
1576 1576 1575 1575 1574 1574 1573 1573 1572 1571 1571 1570 1569 1567 1566 1564 1562 1561 1559 1557 1556 1554 1551 1549 1546 1544 1543 1541 1539 1538 1536 1535 1533 1531 1530 1528 1526 1524
1576 1576 1575 1575 1574 1574 1573 1572 1572 1571 1570 1569 1568 1567 1565 1564 1562 1561 1559 1558 1555 1553 1551 1549 1546 1544 1542 1540 1539 1537 1535 1533 1531 1529 1528 1526 1524 1522
1576 1575 1575 1574 1573 1573 1572 1572 1571 1571 1570 1569 1568 1567 1565 1564 1562 1560 1559 1557 1555 1553 1551 1549 1546 1544 1542 1540 1538 1536 1534 1532 1530 1528 1526 1524 1522 1520
1576 1575 1574 1573 1572 1572 1571 1570 1570 1570 1569 1569 1568 1566 1565 1563 1561 1560 1559 1557 1555 1553 1550 1548 1546 1543 1541 1539 1537 1535 1532 1530 1528 1526 1523 1521 1519 1517
1575 1574 1573 1572 1572 1572 1571 1570 1569 1568 1568 1568 1567 1565 1564 1562 1561 1559 1557 1556 1554 1552 1549 1547 1545 1542 1540 1538 1535 1533 1531 1528 1526 1524 1521 1519 1516 1514
1573 1573 1573 1572 1571 1571 1570 1569 1569 1567 1566 1566 1565 1563 1562 1560 1559 1558 1556 1554 1552 1550 1548 1546 1543 1541 1538 1536 1533 1531 1529 1526 1524 1521 1519 1517 1514 1511
1572 1572 1572 1571 1570 1569 1569 1569 1568 1566 1565 1564 1563 1561 1560 1558 1557 1555 1554 1553 1551 1549 1546 1544 1542 1539 1536 1534 1531 1529 1526 1524 1522 1519 1516 1514 1511 1508
1571 1570 1570 1569 1569 1568 1568 1567 1566 1565 1564 1563 1561 1560 1558 1557 1555 1554 1552 1551 1549 1547 1545 1542 1540 1537 1534 1532 1529 1527 1524 1521 1519 1516 1513 1510 1508 1504
1569 1569 1568 1568 1567 1566 1566 1565 1564 1563 1562 1561 1560 1558 1557 1555 1554 1552 1550 1549 1547 1545 1543 1540 1538 1536 1533 1530 1527 1524 1521 1518 1516 1513 1510 1507 1504 1501
1567 1567 1566 1566 1565 1565 1564 1563 1562 1561 1561 1559 1558 1557 1555 1553 1551 1549 1548 1546 1544 1542 1540 1538 1535 1533 1530 1527 1524 1521 1518 1515 1512 1509 1506 1503 1500 1497
1565 1564 1564 1564 1563 1562 1562 1561 1560 1559 1558 1557 1556 1554 1553 1551 1549 1546 1545 1543 1541 1539 1536 1535 1533 1530 1527 1524 1521 1518 1515 1512 1509 1506 1503 1500 1497 1494
1562 1562 1562 1561 1561 1560 1559 1559 1558 1557 1556 1555 1553 1552 1550 1548 1546 1544 1542 1540 1537 1535 1533 1531 1528 1526 1523 1520 1517 1514 1512 1509 1505 1502 1499 1496 1493 1490
1559 1559 1559 1559 1558 1558 1557 1556 1555 1554 1553 1552 1550 1549 1547 1545 1543 1541 1539 1536 1534 1532 1529 1527 1524 1521 1519 1516 1513 1510 1507 1504 1501 1498 1494 1491 1488 1486
1557 1557 1557 1556 1556 1555 1554 1553 1552 1551 1550 1549 1547 1545 1544 1542 1540 1537 1535 1533 1530 1528 1525 1523 1520 1517 1514 1511 1509 1505 1503 1500 1497 1494 1490 1486 1482 1480
1554 1554 1554 1553 1553 1552 1551 1550 1549 1548 1547 1545 1544 1542 1540 1538 1536 1534 1532 1529 1526 1524 1521 1518 1516 1513 1510 1506 1503 1501 1498 1494 1491 1488 1485 1482 1477 1474
1551 1551 1550 1550 1549 1549 1548 1547 1546 1544 1543 1541 1540 1538 1536 1534 1532 1530 1527 1525 1522 1519 1517 1514 1511 1509 1506 1502 1498 1496 1493 1489 1486 1482 1479 1475 1472 1468
1547 1547 1547 1546 1545 1545 1544 1543 1542 1541 1539 1538 1536 1534 1532 1530 1528 1525 1523 1520 1518 1515 1512 1509 1507 1504 1500 1497 1493 1489 1488 1485 1481 1478 1473 1470 1465 1461
1543 1543 1543 1542 1542 1541 1540 1539 1538 1537 1535 1534 1532 1530 1528 1526 1523 1521 1519 1516 1513 1510 1507 1505 1502 1499 1496 1492 1488 1484 1481 1478 1475 1471 1468 1465 1461 1456
1539 1539 1538 1538 1537 1537 1536 1535 1534 1533 1531 1529 1528 1525 1523 1521 1519 1516 1514 1511 1508 1505 1502 1499 1496 1493 1490 1487 1483 1479 1475 1471 1468 1464 1461 1458 1455 1451